Cloud_Cover
100 100 100 100 100 100 100 100 100 100 100 100 93 96 93 100 79 100 100 100 100 100 100 100 100 100 98 100 100 100 100 100 100 100 100 100 99 100
100 100 100 100 100 100 100 100 100 100 100 100 100 96 100 100 97 100 100 100 100 100 100 100 100 100 91 100 100 100 100 100 100 100 100 59 98 85
100 100 100 100 100 100 100 100 100 100 100 100 92 100 100 100 100 100 100 100 100 100 100 100 100 43 62 38 74 100 100 100 100 86 100 93 99 99
100 100 100 100 100 100 100 100 100 100 100 100 100 100 100 100 100 100 100 100 100 48 100 76 27 48 4 5 5 42 96 69 100 44 100 90 100 100
100 100 100 100 100 100 100 97 49 55 48 99 100 100 100 100 100 100 100 100 28 5 4 1 0 1 25 90 89 42 100 90 80 17 5 5 8 31
100 100 100 100 89 97 24 89 100 100 94 100 100 100 100 100 100 100 100 53 5 4 1 1 3 5 5 4 5 5 5 5 5 5 5 5 5 5
100 100 71 74 79 91 89 99 100 100 100 100 100 100 100 100 100 98 30 5 4 0 0 1 5 5 5 5 5 5 5 1 0 0 5 5 5 4
100 100 100 100 100 99 79 95 100 100 100 100 100 100 100 100 100 5 5 5 5 4 5 5 5 5 5 5 5 5 5 5 4 5 5 5 4 5
100 100 98 95 99 100 100 100 100 100 100 100 100 100 100 99 35 8 5 5 5 2 5 5 5 5 0 4 5 4 5 5 5 5 15 5 26 90
100 100 99 99 100 97 100 100 100 100 100 100 100 100 100 69 18 16 5 3 3 1 5 5 5 5 5 5 5 5 4 9 7 5 6 5 5 79
100 100 100 100 100 100 100 100 100 100 100 100 100 99 54 5 5 4 5 5 5 5 5 5 5 5 5 5 5 7 18 5 5 5 5 13 31 100
100 100 100 100 100 100 100 100 100 100 100 100 88 5 5 5 4 3 5 58 10 8 5 7 7 9 34 25 8 5 5 5 5 5 5 18 41 86
100 100 100 100 100 100 100 100 100 93 51 84 60 5 5 5 7 14 6 10 5 30 62 24 47 45 73 59 5 5 5 5 5 5 5 19 91 100
100 100 100 100 100 100 100 100 100 100 100 100 77 71 5 37 29 11 10 38 36 58 21 100 72 66 94 100 58 10 5 5 8 76 100 100 100 100
100 100 100 100 100 100 100 100 100 100 100 100 100 100 11 20 24 34 77 99 98 90 68 94 85 58 83 97 93 81 95 33 11 100 100 100 100 100
100 100 100 100 100 100 100 100 100 100 100 100 99 78 24 55 76 100 100 100 100 87 97 100 100 94 88 59 98 100 100 89 6 16 77 100 100 100
100 100 100 100 100 100 100 100 89 41 18 61 98 100 98 100 100 100 100 100 100 83 87 99 100 100 100 100 98 99 99 48 6 17 99 100 93 100
100 100 100 100 100 100 100 100 86 60 90 98 100 100 100 100 100 100 100 100 100 98 90 94 100 100 92 66 19 84 95 71 30 70 100 100 92 13
100 100 100 100 100 100 100 100 100 100 100 100 100 100 100 100 100 100 100 100 100 72 85 98 100 100 97 98 84 7 80 72 98 52 6 8 38 5
100 100 100 100 100 100 100 100 100 100 100 100 100 100 100 100 100 98 100 100 95 95 100 88 52 64 57 60 51 30 10 56 55 46 15 5 44 5
100 100 100 100 100 100 100 100 100 100 100 100 100 100 100 100 100 99 97 100 100 95 96 54 8 10 66 99 98 100 79 5 5 56 83 95 96 64
100 100 100 100 100 100 100 100 100 100 100 100 100 100 100 81 80 86 100 100 60 55 39 46 7 43 95 100 100 100 97 5 5 5 16 70 99 95
100 100 100 100 100 100 100 100 100 100 100 100 100 100 81 100 98 99 96 75 80 72 52 30 50 65 96 98 98 87 81 49 5 18 5 5 5 52